[[{"header":{"parameterUnit":"m.s-1","parameterCategory":1,"la1":30.2991,"la2":30.254,"lo1":-89.0895,"lo2":-89.0444,"dy":0.0017,"dx":0.0017,"nx":28,"ny":28,"refTime":"2024-07-08T09:00:00:Z","depth":0,"parameterNumber":2,"parameterNumberName":"U-component_of_WINDS"},"data":[0,0,0,0,0,0,0,0,0,0,0,0,0,0,0,0,0,0,0,0,0,0,0,0,0,0,0,0,0,0,0,0,0,0,0,0,0,0,0,0,0,0,0,0,0,0,0,0,0,0,0,0,0,0,0,0,0,0,-3.5468,-3.5469,0,-3.5534,-3.5535,-3.5535,-3.5526,-3.5525,-3.5524,-3.5523,-3.5589,-3.5592,-3.5595,0,0,0,0,0,0,0,0,0,0,0,0,0,-3.5334,-3.5336,-3.5468,-3.5469,-3.547,-3.5534,-3.5535,-3.5536,-3.5526,-3.5525,-3.5524,-3.5522,-3.5588,-3.5592,-3.5595,0,0,0,0,0,0,0,0,0,0,0,0,0,-3.5395,-3.5337,-3.5468,-3.5473,-3.5474,-3.5534,-3.5535,-3.5536,-3.5527,-3.5525,-3.5523,-3.5522,-3.5587,-3.5591,-3.5595,-3.5654,0,0,-3.5608,-3.561,0,0,0,0,0,0,0,0,-3.5392,-3.54,-3.5471,-3.5472,-3.5474,-3.552,-3.5512,-3.5576,-3.5527,-3.5506,-3.5523,-3.5521,-3.5568,-3.5573,-3.5589,-3.5657,-3.566,-3.5609,-3.5611,-3.5613,-3.5614,0,0,0,0,0,0,0,-3.5387,-3.5397,-3.5494,-3.5472,-3.5474,-3.5472,-3.5478,-3.5524,-3.5545,-3.5508,-3.5508,-3.5516,-3.5568,-3.5585,-3.5591,-3.5661,-3.5609,-3.5612,-3.5615,-3.5616,-3.5782,-3.5784,0,0,0,0,0,0,-3.5382,-3.5394,-3.5492,-3.5496,-3.5428,-3.5475,-3.5483,-3.5507,-3.5545,-3.5549,-3.5517,-3.5515,-3.5579,-3.5586,-3.5593,-3.5664,-3.5613,-3.5617,-3.5619,-3.578,-3.5782,-3.5784,0,0,0,0,0,0,-3.5379,-3.5391,-3.5489,-3.5445,-3.5457,-3.5479,-3.5506,-3.5509,-3.5526,-3.5552,-3.5555,-3.5531,-3.5578,-3.5587,-3.5639,-3.5666,-3.5619,-3.5623,-3.5778,-3.5781,-3.5783,-3.5807,0,0,0,0,0,0,-3.5375,-3.539,-3.5412,-3.5445,-3.546,-3.5534,-3.5508,-3.5512,-3.5534,-3.5532,-3.5565,-3.5569,-3.5577,-3.5633,-3.5644,-3.5671,-3.5626,-3.5775,-3.5779,-3.5783,-3.5804,-3.581,-3.5816,0,0,0,0,0,-3.5371,-3.5416,-3.5413,-3.5425,-3.5488,-3.5536,-3.5544,-3.5552,-3.5536,-3.5558,-3.5575,-3.5568,-3.5662,-3.5639,-3.565,-3.5679,-3.5774,-3.5778,-3.5782,-3.5801,-3.5809,-3.5816,0,0,0,0,0,0,-3.5384,-3.542,-3.5418,-3.5475,-3.5503,-3.5534,-3.5563,-3.556,-3.5593,-3.5589,-3.5599,-3.5606,-3.5659,-3.5675,-3.5648,-3.5739,-3.5716,-3.5723,-3.5726,-3.5734,-3.574,-3.5734,-3.5629,0,0,0,0,0,-3.5394,-3.543,-3.546,-3.5507,-3.5522,-3.554,-3.5561,-3.5566,-3.5594,-3.5606,-3.5626,-3.5654,-3.569,-3.5713,-3.5748,-3.5807,-3.5814,-3.5833,-3.5839,-3.5844,-3.5849,-3.5882,-3.589,-3.5798,-3.5798,-3.5798,0,0,-3.5414,-3.5438,-3.546,-3.5511,-3.5533,-3.557,-3.555,-3.559,-3.5617,-3.5612,-3.5662,-3.5678,-3.571,-3.5766,-3.5792,-3.5781,-3.5876,-3.5849,-3.5853,-3.5855,-3.5887,-3.5895,-3.5903,-3.5801,-3.5801,-3.58,0,0,-3.547,-3.5492,-3.5534,-3.5557,-3.5591,-3.5603,-3.5614,-3.5646,-3.5657,-3.5708,-3.5705,-3.5738,-3.58,-3.5823,-3.5842,-3.591,-3.5904,-3.5921,-3.5951,-3.5983,-3.599,-3.5996,-3.6019,-3.6027,-3.5926,-3.5926,-3.5926,0,-3.549,-3.5546,-3.5556,-3.5597,-3.5619,-3.5617,-3.566,-3.5682,-3.5725,-3.574,-3.5728,-3.5806,-3.5827,-3.5889,-3.5905,-3.5922,-3.5934,-3.5915,-3.5988,-3.5995,-3.6001,-3.6023,-3.6031,-3.5928,-3.5928,-3.5928,-3.5927,0,-3.5569,-3.5608,-3.5638,-3.5681,-3.5707,-3.5748,-3.5765,-3.579,-3.5793,-3.5807,-3.586,-3.5886,-3.5926,-3.5941,-3.5944,-3.6004,-3.5996,-3.5986,-3.5962,-3.6011,-3.6032,-3.604,-3.593,-3.593,-3.5929,-3.5929,0,0,-3.5632,-3.5681,-3.5692,-3.5711,-3.575,-3.578,-3.5822,-3.5862,-3.5883,-3.5914,-3.5949,-3.6003,-3.5994,-3.6016,-3.6023,-3.6051,-3.6102,-3.6037,-3.6038,-3.6047,-3.6168,-3.6174,-3.6183,-3.61,-3.6101,-3.6103,-3.6165,0,-3.569,-3.5764,-3.5775,-3.584,-3.5876,-3.5877,-3.5914,-3.5941,-3.5956,-3.5989,-3.6006,-3.6043,-3.603,-3.6043,-3.6071,-3.6089,-3.6126,-3.6085,-3.6131,-3.6133,-3.6121,-3.6194,-3.62,-3.6257,-3.6173,-3.6174,-3.6176,0,-3.5766,-3.58,-3.5869,-3.5903,-3.5919,-3.5951,-3.5989,-3.6021,-3.6053,-3.6062,-3.6088,-3.6091,-3.6135,-3.6112,-3.6173,-3.6145,-3.6165,-3.6177,-3.618,-3.6182,-3.6155,-3.6197,-3.6276,-3.6284,-3.6189,-3.6188,-3.6187,0,-3.5804,-3.5866,-3.5915,-3.5932,-3.5974,-3.5997,-3.6015,-3.6046,-3.6069,-3.6103,-3.6118,-3.6157,-3.6177,-3.6207,-3.622,-3.6202,-3.628,-3.6258,-3.6288,-3.6287,-3.6302,-3.63,-3.6383,-3.6318,-3.6318,-3.6318,-3.6318,0,-3.5866,-3.5907,-3.5933,-3.5963,-3.601,-3.6024,-3.607,-3.6088,-3.6115,-3.6149,-3.6153,-3.6184,-3.6201,-3.6236,-3.6247,-3.6295,-3.6305,-3.6313,-3.6315,-3.6311,-3.631,-3.6323,-3.6318,-3.632,-3.632,-3.6319,-3.6319,0,-3.5914,-3.5933,-3.5986,-3.6022,-3.6032,-3.6065,-3.6096,-3.6125,-3.6141,-3.6184,-3.6195,-3.622,-3.626,-3.6278,-3.6328,-3.6336,-3.639,-3.639,-3.6379,-3.6379,-3.6408,-3.6404,-3.65,-3.6513,-3.6441,-3.6442,-3.6443,0,-3.5951,-3.5983,-3.6023,-3.6046,-3.6065,-3.6103,-3.6127,-3.6143,-3.6168,-3.6208,-3.6232,-3.6274,-3.6307,-3.6372,-3.6394,-3.6433,-3.6433,-3.6464,-3.6438,-3.6434,-3.6432,-3.6429,-3.6432,-3.6468,-3.6468,-3.6469,-3.6469,0,-3.6015,-3.6023,-3.6058,-3.6097,-3.6126,-3.6157,-3.6188,-3.6207,-3.6227,-3.6256,-3.6298,-3.6324,-3.6376,-3.6416,-3.6456,-3.6476,-3.6476,-3.6478,-3.6486,-3.6482,-3.6473,-3.6477,-3.639,-3.6475,-3.6474,-3.6474,-3.6473,-3.6473,-3.6058,-3.6086,-3.6119,-3.6158,-3.6183,-3.6212,-3.6242,-3.6262,-3.6297,-3.6341,-3.6349,-3.6393,-3.6426,-3.648,-3.6501,-3.6536,-3.6529,-3.6541,-3.6544,-3.6547,-3.6548,-3.647,-3.6544,-3.6544,-3.6544,-3.6544,-3.6544,0,-3.612,-3.6142,-3.6178,-3.6221,-3.6252,-3.6252,-3.6286,-3.6312,-3.6351,-3.6382,-3.6415,-3.6464,-3.6504,-3.653,-3.6571,-3.6594,-3.6595,-3.6604,-3.6601,-3.6605,-3.6553,-3.6541,-3.6602,-3.6602,-3.6602,-3.6602,-3.6602,-3.6602,-3.6156,-3.6205,-3.6217,-3.6279,-3.63,-3.6344,-3.6364,-3.6391,-3.6415,-3.6469,-3.6503,-3.652,-3.6549,-3.6592,-3.6629,-3.6636,-3.665,-3.6659,-3.6665,-3.6615,-3.6609,-3.6603,-3.6591,-3.6662,-3.6662,-3.6714,-3.6714,-3.6715]},{"header":{"parameterUnit":"m.s-1","parameterCategory":1,"la1":30.2991,"la2":30.254,"lo1":-89.0895,"lo2":-89.0444,"dy":0.0017,"dx":0.0017,"nx":28,"ny":28,"refTime":"2024-07-08T09:00:00:Z","depth":0,"parameterNumber":3,"parameterNumberName":"V-component_of_WINDS"},"data":[0,0,0,0,0,0,0,0,0,0,0,0,0,0,0,0,0,0,0,0,0,0,0,0,0,0,0,0,0,0,0,0,0,0,0,0,0,0,0,0,0,0,0,0,0,0,0,0,0,0,0,0,0,0,0,0,0,0,4.5884,4.5884,0,4.5884,4.5884,4.5884,4.5856,4.5856,4.5855,4.5854,4.5852,4.5853,4.5854,0,0,0,0,0,0,0,0,0,0,0,0,0,4.586,4.586,4.5884,4.5884,4.5884,4.5884,4.5884,4.5884,4.5856,4.5856,4.5855,4.5854,4.5852,4.5853,4.5854,0,0,0,0,0,0,0,0,0,0,0,0,0,4.5866,4.586,4.5884,4.587,4.5869,4.5884,4.5884,4.5884,4.5857,4.5856,4.5854,4.5853,4.5852,4.5853,4.5854,4.5882,0,0,4.5857,4.5857,0,0,0,0,0,0,0,0,4.5866,4.5867,4.5872,4.5871,4.587,4.5869,4.5875,4.5883,4.5857,4.5861,4.5854,4.5853,4.5859,4.5859,4.5862,4.5882,4.5882,4.5857,4.5857,4.5858,4.5858,0,0,0,0,0,0,0,4.5865,4.5867,4.5884,4.5873,4.5871,4.5864,4.5864,4.5876,4.5866,4.5861,4.5859,4.5859,4.5858,4.5861,4.5861,4.5882,4.5857,4.5858,4.5858,4.5859,4.5927,4.5928,0,0,0,0,0,0,4.5867,4.5867,4.5884,4.5884,4.5865,4.5865,4.5865,4.5871,4.5866,4.5864,4.586,4.5858,4.586,4.586,4.5861,4.5895,4.5858,4.5859,4.5859,4.5925,4.5927,4.5928,0,0,0,0,0,0,4.5866,4.5869,4.5884,4.5875,4.5876,4.5867,4.5873,4.5871,4.5874,4.5866,4.5863,4.5865,4.5859,4.586,4.5877,4.5894,4.5859,4.586,4.5924,4.5926,4.5928,4.5961,0,0,0,0,0,0,4.5866,4.5869,4.5879,4.5875,4.5877,4.5901,4.5874,4.5872,4.5876,4.5873,4.5869,4.5868,4.5858,4.5876,4.5878,4.5895,4.5861,4.5922,4.5925,4.5927,4.5959,4.5964,4.5969,0,0,0,0,0,4.5865,4.5888,4.588,4.5882,4.589,4.5902,4.5902,4.5891,4.5877,4.5888,4.5883,4.5868,4.5892,4.5878,4.588,4.5897,4.5921,4.5924,4.5927,4.5956,4.5963,4.5969,0,0,0,0,0,0,4.5892,4.5887,4.5878,4.59,4.5902,4.5897,4.591,4.5898,4.5903,4.59,4.5886,4.5885,4.5905,4.5903,4.5888,4.5925,4.5904,4.5907,4.5926,4.5932,4.5937,4.5937,4.5862,0,0,0,0,0,4.5901,4.5912,4.5906,4.5926,4.5928,4.5919,4.5923,4.5915,4.5916,4.5916,4.5912,4.5913,4.5921,4.5926,4.5933,4.5958,4.5958,4.5971,4.5976,4.5981,4.5984,4.5998,4.6005,4.5937,4.5937,4.5937,0,0,4.5919,4.5917,4.5925,4.5932,4.5932,4.5943,4.5919,4.5932,4.594,4.5917,4.5934,4.5932,4.5932,4.5954,4.5964,4.5953,4.6002,4.5984,4.5988,4.5988,4.6002,4.6008,4.6014,4.5939,4.5939,4.5939,0,0,4.5958,4.5957,4.5975,4.5976,4.5977,4.5971,4.5976,4.5973,4.5971,4.5988,4.5972,4.5982,4.5995,4.5997,4.5999,4.6041,4.6028,4.6043,4.607,4.6084,4.609,4.6094,4.611,4.6116,4.6046,4.6047,4.6047,0,4.5979,4.5996,4.5985,4.5999,4.6003,4.5985,4.6003,4.6004,4.6007,4.6011,4.5999,4.6017,4.6016,4.6039,4.6049,4.6052,4.6057,4.6044,4.609,4.6094,4.6099,4.6114,4.612,4.6049,4.6048,4.6048,4.6048,0,4.6024,4.6035,4.6049,4.6055,4.606,4.6076,4.6068,4.6075,4.6066,4.6062,4.6081,4.6079,4.6086,4.609,4.6082,4.6113,4.6106,4.6092,4.6071,4.6107,4.6121,4.6127,4.6051,4.6051,4.605,4.605,0,0,4.6078,4.6078,4.6084,4.6086,4.6088,4.6096,4.6112,4.612,4.6127,4.613,4.6144,4.6157,4.6145,4.6147,4.6139,4.6152,4.6187,4.6136,4.6136,4.6147,4.6222,4.6233,4.624,4.6178,4.6179,4.618,4.6223,0,4.6116,4.6143,4.6135,4.6163,4.6174,4.6158,4.6172,4.6174,4.6171,4.6181,4.6177,4.6187,4.617,4.6172,4.6184,4.618,4.6202,4.6177,4.6191,4.6191,4.6192,4.6247,4.6258,4.6298,4.6228,4.6229,4.6229,0,4.6164,4.6171,4.62,4.6201,4.6206,4.6218,4.6226,4.6235,4.6238,4.6235,4.6239,4.6229,4.6245,4.6224,4.6246,4.6229,4.6234,4.6234,4.6235,4.6236,4.6213,4.625,4.6311,4.6317,4.6238,4.6237,4.6236,0,4.6202,4.6218,4.6239,4.6241,4.6243,4.6252,4.6253,4.6255,4.6261,4.6268,4.6271,4.6279,4.6284,4.629,4.6282,4.6268,4.6306,4.6284,4.6305,4.6305,4.6313,4.6313,4.6376,4.6316,4.6316,4.6316,4.6316,0,4.6246,4.6264,4.6256,4.6268,4.629,4.628,4.6301,4.63,4.6302,4.6314,4.63,4.6312,4.6301,4.6311,4.6305,4.6325,4.6327,4.6325,4.6324,4.6327,4.6327,4.633,4.6328,4.6318,4.6317,4.6317,4.6317,0,4.6291,4.6286,4.6308,4.6308,4.6309,4.6324,4.6325,4.6336,4.6333,4.6349,4.6352,4.6347,4.6359,4.6352,4.6364,4.636,4.6386,4.638,4.6386,4.6384,4.6406,4.6404,4.6474,4.6483,4.6416,4.6417,4.6417,0,4.632,4.6334,4.6337,4.6345,4.6347,4.6359,4.6366,4.6357,4.6365,4.6371,4.6382,4.6393,4.6402,4.6422,4.6419,4.6429,4.6423,4.6447,4.6425,4.6428,4.6425,4.6424,4.6426,4.6452,4.6452,4.6453,4.6454,0,4.6371,4.6369,4.6379,4.639,4.6398,4.6406,4.6412,4.6419,4.641,4.6419,4.6433,4.6439,4.6453,4.6465,4.6473,4.6474,4.6463,4.6461,4.6466,4.647,4.6473,4.6473,4.6399,4.6459,4.6459,4.6458,4.6458,4.6458,4.641,4.6423,4.6428,4.644,4.6444,4.6451,4.6463,4.6462,4.6472,4.6484,4.6478,4.6493,4.6497,4.6508,4.6511,4.6523,4.6513,4.6521,4.6523,4.6525,4.6528,4.6471,4.6524,4.6524,4.6524,4.6524,4.6523,0,4.6462,4.6465,4.6476,4.6486,4.6497,4.6486,4.6493,4.6502,4.6516,4.6521,4.6531,4.6547,4.6559,4.6557,4.6568,4.6578,4.6574,4.6582,4.6581,4.6582,4.6536,4.653,4.6586,4.6586,4.6585,4.6585,4.6585,4.6585,4.649,4.6512,4.651,4.6534,4.6536,4.6553,4.6558,4.6564,4.6568,4.6587,4.6597,4.6597,4.66,4.6611,4.6622,4.6621,4.6626,4.6636,4.6634,4.6591,4.6585,4.6579,4.6574,4.6637,4.6637,4.6679,4.6679,4.668]}]]